EHI
33 32 27 20 14 12 13 14 9 4 1 1 4 10 12 10 6 5 7 5 1 0 0 0 0 0 0 0 0 0 0 0 0 0 0 0 0 0
31 29 24 20 16 15 15 16 13 7 3 2 5 9 10 9 7 9 11 8 3 0 0 0 0 0 0 0 0 0 0 0 0 0 0 0 0 0
31 26 22 21 19 18 17 18 17 13 6 4 7 10 10 9 11 14 14 10 5 1 0 0 0 0 0 0 0 0 0 0 0 0 0 0 0 0
29 25 21 20 20 20 18 17 17 13 8 5 7 11 9 8 12 14 10 7 5 2 0 0 0 0 0 0 0 0 0 0 0 0 0 0 0 0
26 23 19 18 19 20 18 15 13 11 7 4 5 7 5 5 9 9 7 5 4 2 1 0 0 0 0 0 0 0 0 0 0 0 0 0 0 0
24 21 19 17 17 16 15 12 11 8 5 3 2 2 2 3 5 6 5 5 4 3 2 1 0 0 0 0 0 0 0 0 0 0 0 0 0 0
21 19 17 15 12 11 9 8 8 7 5 4 2 1 2 1 2 3 4 4 4 4 3 3 2 1 1 1 0 0 0 0 0 0 0 0 0 0
20 18 15 12 9 7 5 4 4 4 4 3 3 3 3 2 1 1 2 2 2 3 4 4 4 4 3 2 0 0 0 0 0 0 0 0 0 0
21 19 16 12 9 6 3 2 2 2 2 2 3 3 3 3 1 0 1 1 1 2 3 3 3 4 3 1 0 0 0 0 0 0 0 0 0 0
21 19 16 12 7 5 3 2 2 2 1 1 2 2 2 2 1 0 0 0 1 1 1 1 1 1 1 0 0 0 0 0 0 0 0 0 0 0
16 14 11 9 5 2 2 3 3 1 1 1 1 1 1 1 1 0 0 0 0 0 1 1 0 0 0 0 0 0 0 0 0 0 0 0 0 0
13 10 6 4 2 1 2 4 3 1 0 2 2 1 1 1 1 0 0 0 0 0 0 0 0 0 0 0 0 0 0 0 0 0 0 0 0 0
10 7 4 1 0 0 2 3 2 0 1 3 4 2 2 2 2 1 0 0 0 0 0 0 0 0 0 0 0 0 0 0 0 0 0 0 0 0
6 4 2 1 0 0 0 1 0 0 1 3 4 3 3 3 3 2 1 0 0 0 0 0 0 0 0 0 0 0 0 0 0 0 0 0 0 0
2 1 1 0 0 0 0 0 0 0 1 2 2 2 2 2 2 2 1 0 0 0 0 0 0 0 0 0 0 0 0 0 0 0 0 0 0 0
1 0 0 1 1 1 0 0 0 0 0 1 1 1 1 1 1 1 0 0 0 0 0 0 0 0 0 0 0 0 0 0 0 0 0 0 0 0
0 1 1 2 2 1 0 0 0 0 0 0 0 0 0 0 0 0 0 0 0 0 0 0 0 0 0 1 0 0 0 0 0 0 0 0 0 0
1 1 2 2 1 1 0 0 0 0 0 0 0 1 0 0 0 0 0 0 0 0 0 0 0 0 0 0 0 0 0 0 0 0 0 0 0 0
0 1 1 1 1 0 0 0 0 0 0 0 0 0 0 0 0 0 0 0 0 0 0 0 0 0 0 0 0 0 0 0 0 0 0 0 0 0
0 0 0 0 1 0 0 0 0 0 0 0 0 0 0 0 0 0 0 0 0 0 0 0 0 0 0 0 0 0 0 0 0 0 0 0 0 0
0 0 0 0 0 0 0 0 0 0 0 0 0 0 0 0 0 0 0 0 0 0 0 0 0 0 0 0 0 0 0 0 0 0 0 0 0 0
0 0 0 0 0 0 0 0 0 0 0 0 0 0 0 0 0 0 0 0 0 0 0 0 0 0 0 0 0 0 0 0 0 0 0 0 0 0
0 0 0 0 0 0 0 0 0 0 0 0 0 0 0 0 0 0 0 0 0 0 0 0 0 0 0 0 0 0 0 0 0 0 0 0 0 0
Wind_Speed
4 4 3 3 3 2 2 2 2 3 3 3 2 2 2 2 5 5 5 10 11 11 10 10 9 9 9 9 9 9 9 9 9 9 9 9 9 10
3 3 3 3 3 3 3 3 3 3 3 2 2 1 1 3 6 5 5 10 12 12 11 11 10 9 9 9 9 9 9 9 9 9 9 8 9 9
4 4 5 4 3 3 3 2 2 2 3 3 1 1 1 1 2 3 3 5 6 12 12 11 11 10 9 9 9 9 9 9 9 9 8 8 9 9
4 4 4 4 4 3 3 3 2 2 3 4 2 2 2 2 3 3 3 4 4 9 12 12 11 11 10 10 10 9 9 9 9 9 9 9 9 10
3 4 4 3 3 3 3 3 2 3 2 3 3 2 2 2 2 2 3 2 4 4 9 10 11 11 10 10 9 9 9 9 9 9 9 8 9 9
2 2 2 2 2 2 2 2 2 2 2 2 2 2 1 1 1 2 2 2 3 3 3 5 8 10 9 9 9 9 9 9 8 8 8 8 8 8
1 1 0 2 2 2 1 1 2 2 2 1 1 1 1 1 1 2 2 1 2 2 1 1 3 3 4 6 7 7 7 7 7 7 7 7 8 8
0 0 1 3 3 4 4 5 4 2 2 1 1 2 1 1 1 2 2 2 2 1 1 2 1 1 2 2 3 5 6 6 6 5 5 6 6 6
1 2 1 2 2 3 3 4 4 4 3 2 2 3 3 3 3 2 2 2 2 2 1 3 2 2 1 0 2 3 3 4 4 4 4 4 5 6
3 3 3 3 3 2 2 3 4 5 4 3 2 3 3 4 3 2 2 2 2 2 1 2 3 2 2 1 1 2 3 3 3 2 2 3 4 5
4 4 3 3 4 3 2 3 3 3 4 5 4 4 5 7 5 3 2 1 2 2 2 2 3 3 2 0 0 1 2 2 2 2 2 2 4 4
4 4 6 4 4 4 3 3 3 2 2 3 3 3 3 4 5 3 3 2 2 2 2 2 2 2 2 1 0 0 0 1 2 3 2 2 3 2
3 3 3 6 6 6 4 3 2 1 2 3 3 3 3 3 4 3 3 2 2 1 3 2 2 2 1 2 1 1 1 1 1 2 4 3 2 1
3 3 4 5 5 5 4 4 3 2 2 2 3 3 3 3 3 3 3 3 2 1 2 2 2 2 2 2 2 2 1 1 0 1 1 1 3 3
4 5 4 4 4 4 5 4 3 2 2 2 3 3 2 2 2 2 3 2 2 2 3 3 2 2 2 2 2 2 2 1 1 1 1 1 1 1
3 4 4 4 4 4 4 3 3 3 3 2 2 2 2 2 2 2 2 2 2 2 2 2 2 2 2 2 2 3 3 2 1 1 1 2 1 0
3 2 2 3 3 3 3 3 3 3 3 3 3 3 2 2 3 3 2 2 2 2 3 2 2 1 1 2 2 3 3 3 2 2 2 2 1 1
4 4 3 3 3 3 3 3 3 3 3 2 2 3 3 3 3 2 2 3 3 2 2 2 2 2 2 2 3 2 2 3 3 3 3 2 3 2
4 4 4 4 4 3 3 3 3 3 2 2 2 2 2 3 3 3 3 3 2 2 2 2 2 3 3 3 3 3 3 3 3 3 3 2 3 2
4 5 4 3 3 3 3 3 2 2 3 3 3 3 3 3 3 3 3 3 3 3 3 3 2 2 2 3 3 3 3 2 2 3 3 2 2 2
4 4 3 3 3 3 2 2 2 2 3 3 3 4 4 3 3 3 3 4 4 3 3 3 3 3 3 2 3 1 1 2 2 2 3 3 3 3
4 4 3 3 3 3 3 3 3 3 4 4 4 4 3 3 4 4 4 4 3 3 3 3 3 3 3 3 4 3 1 1 2 3 4 3 2 3
4 4 4 4 4 4 4 4 5 5 5 5 4 4 4 4 3 3 4 4 4 4 4 3 3 3 4 3 4 4 4 3 2 1 3 4 6 7
Wind_Direction
227 232 238 253 254 252 247 227 225 244 252 249 228 195 181 169 168 188 180 188 194 199 203 207 211 215 220 224 227 229 232 236 237 238 239 241 243 243
228 238 241 248 248 241 241 245 234 226 249 246 239 216 199 195 182 195 188 184 196 199 199 203 207 210 215 219 223 225 228 231 235 237 238 239 241 243
227 230 234 240 253 253 249 246 248 234 246 258 244 239 236 242 180 219 194 183 197 205 204 205 207 210 214 219 224 227 229 230 232 234 236 240 244 246
230 237 242 244 248 258 260 252 248 240 237 259 261 248 245 232 209 228 232 219 207 201 202 203 205 208 213 217 222 227 230 232 233 234 236 239 243 245
229 233 246 256 260 259 260 257 248 249 235 250 262 244 247 247 230 254 262 266 255 201 198 205 207 209 212 216 220 224 227 230 233 237 241 244 247 251
227 234 250 261 272 280 273 281 280 276 265 259 269 266 258 253 211 243 265 258 262 262 219 205 204 211 215 215 217 221 224 227 231 235 239 244 249 252
230 264 227 83 57 35 337 332 310 284 277 262 272 283 292 314 281 275 271 273 267 269 274 242 204 214 222 223 225 226 224 224 226 230 237 243 247 250
175 74 124 93 77 77 59 48 40 8 348 336 314 307 304 294 279 278 280 284 287 310 338 313 304 201 217 201 198 206 217 221 222 228 238 247 251 252
87 73 58 63 60 71 75 62 44 35 33 8 349 330 320 318 318 308 300 295 274 282 317 300 318 320 291 214 167 171 188 201 206 220 239 251 255 255
66 71 72 52 43 52 76 66 52 36 31 38 30 5 354 338 320 290 285 293 283 300 306 274 284 283 306 35 30 125 149 168 179 209 242 260 263 266
72 60 68 69 38 42 75 69 58 44 46 53 51 37 21 17 16 9 339 314 292 294 334 290 285 292 284 259 109 130 151 164 181 205 230 257 267 264
94 77 60 59 51 47 74 74 60 30 35 42 40 26 23 21 23 19 346 329 316 324 346 320 290 298 292 297 313 174 158 209 226 232 238 262 285 271
90 80 68 71 67 62 69 69 55 30 43 48 45 36 30 33 32 27 20 8 359 339 339 338 329 334 309 305 291 261 220 202 207 237 241 244 252 237
86 85 87 90 87 79 72 62 54 58 51 48 47 42 35 31 25 27 34 39 49 38 356 7 355 342 320 306 299 306 302 302 312 277 236 238 245 244
79 90 95 90 84 80 75 64 56 42 42 42 44 42 41 35 27 25 29 35 44 32 30 23 15 349 333 315 312 308 313 320 353 3 353 290 260 246
101 101 97 76 67 64 56 51 46 37 33 39 37 23 16 23 27 21 16 21 27 2 359 14 16 5 341 331 334 334 326 318 335 348 325 301 295 293
106 103 83 77 74 69 61 56 49 39 34 30 25 16 14 18 15 11 8 8 14 1 358 4 13 12 10 357 357 350 344 343 345 334 320 314 308 313
86 81 70 64 63 62 57 55 54 44 31 29 21 11 11 11 9 4 7 9 4 1 360 3 5 1 357 9 8 355 351 341 339 339 332 331 332 341
81 76 69 63 60 57 52 43 38 28 13 17 23 15 6 8 11 7 4 4 357 350 351 359 12 6 347 338 327 328 322 323 333 339 338 331 324 319
72 74 69 64 59 51 43 37 31 25 15 12 14 12 11 11 8 0 359 357 346 348 355 1 12 358 323 307 297 303 314 330 334 328 327 324 306 300
72 70 66 62 57 45 28 24 30 28 23 17 15 10 7 3 357 351 351 347 343 351 357 351 333 313 288 292 298 302 312 318 322 316 323 321 317 314
68 64 57 54 49 35 23 18 25 32 24 17 12 5 3 358 351 346 343 341 346 351 350 342 334 335 331 328 326 327 326 305 305 307 298 284 296 302
60 55 48 45 43 34 24 25 32 32 21 11 6 357 353 350 342 342 344 345 346 348 346 345 342 338 335 330 327 331 338 332 317 306 296 276 268 270